Location: Gollag?dem
(16.8053°N, 80.8024°E)
Time: 13:26:23
(UTC+00:00)

Cosmos 1500 Rocket - Pass Details

Date: 13 August 2020
Orbit: 604 x 630 km, 82.5° (Epoch: 24 September)

Event Time Altitude Azimuth Distance (km) Brightness Sun altitude
Rises 13:17:13 0° 173° (S) 2,846 6.7 -4.1°
Reaches altitude 10° 13:19:29 10° 167° (SSE) 1,943 5.8 -4.6°
Maximum altitude 13:23:37 47° 93° (E) 796 3.8 -5.6°
Drops below altitude 10° 13:27:45 10° 19° (NNE) 1,946 6.1 -6.5°
Sets 13:30:01 0° 13° (NNE) 2,852 7.0 -7.0°
